METEOR 2-5 DEB, 45510

Orbit data source: Space-Track

METEOR 2-5 DEB, 45510 is space debris in LEO originally from a launch on Wed, 31 Oct 1979 UTC launched from the Plesetsk Missile And Space Complex (PKMTR). Debris objects in space refer to the collection of defunct objects orbiting the Earth. Examples of debris include non-operational satellites, rocket bodies, and fragments generated from explosions, collisions, or faulty payload assembly.

Loading next visibility...
Identifier
45510, 1979-095CS
Orbit
LEO
Country
Flag of CISCIS
Related business
Manufacturer
Unknown
Mission
Spacecraft
Bus & Motor
Unknown
Mass
Unknown
Launch date (UTC)
1979-10-31 (47 years ago)
Launch vehicle
Unknown
Launch site
Plesetsk Missile And Space Complex (PKMTR)
Object type
Payload
Rocket body
Debris
Shape & HBR
Unknown shape, 0.1 m
Radar Cross Section
Small (<0.1 m²)

Expand to show TLE details & history
Last TLE update: 4 days ago

TLE from 4 days ago
0 METEOR 2-5 DEB
1 45510U 79095CS  26169.80618348  .00002155  00000-0  93352-3 0  9995
2 45510  81.1890 200.6065 0011804 176.9095 183.2159 14.23976822442726
Epoch: 2026-06-18T19:20Z
TLE epoch observation values (Epoch: 2026-06-18T19:20:54.252Z)
Latitude
0.00001°
Longitude
3.33622°
Altitude
823.327 km
Speed
7.437 km/s
True Right ascension
13h 22m 25s
True Declination
0° 00' 00"
Sunlit
Object was in daylight at epoch
Visualization orbit readout
Latitude
Unknown
Longitude
Unknown
Altitude
Unknown
Speed
Unknown
Apparent Right ascension
Unknown
Apparent Declination
Unknown
Sunlit
N/A
Visualization observer readout
Local Sidereal Time
21:40:42
Azimuth
Unknown
Elevation
Unknown
Doppler factor
Unknown
Orbital elements
Apogee altitude
817.577 km
Perigee altitude
800.609 km
Semi-major axis
7,187.23 km
Eccentricity
0.00118
Inclination
81.189°
RAAN
200.6065°
Arg. of periapsis
176.9095°
True anomaly
183.20832°
Mean anomaly
183.2159°
Eccentric anomaly
183.21211°
Mean motion
3.56206 °/min
Orbital period
101.07 mins
BSTAR
0.00093352
Loading maneuver chart data...
Computing Atmospheric mass density...

Documentation

Showing up to 5 results
|